ETH363 HDAM-HAAB

Flight info

Callsign ETH363
Flight time 0h 55m
Altitude 32000
Route LAKBE NIDEG ASOLE
Aircraft B738/M-V/N

Departure

Time 2026-04-24 08:07
Airport Djibouti-Ambouli Airport (HDAM)

Arrival

Time 2026-04-24 09:03
Airport Addis Ababa Bole International Airport (HAAB)
Time Latitude Longitude Altitude Speed Heading
2026-04-24 08:07 11.53164 43.05128 4203 ft 251 kts 243°
2026-04-24 08:07 11.52305 43.03503 4667 ft 266 kts 243°
2026-04-24 08:08 11.51426 43.01855 5569 ft 262 kts 244°
2026-04-24 08:08 11.50563 43.00248 6556 ft 255 kts 243°
2026-04-24 08:08 11.49710 42.98667 7373 ft 257 kts 243°
2026-04-24 08:09 11.47953 42.95431 8774 ft 264 kts 243°
2026-04-24 08:09 11.47069 42.93811 9470 ft 267 kts 243°
2026-04-24 08:09 11.46160 42.92149 10157 ft 270 kts 243°
2026-04-24 08:09 11.45216 42.90429 10491 ft 288 kts 243°
2026-04-24 08:10 11.44209 42.88595 10750 ft 306 kts 243°
2026-04-24 08:10 11.43137 42.86647 11084 ft 320 kts 242°
2026-04-24 08:10 11.42042 42.84660 11763 ft 323 kts 242°
2026-04-24 08:10 11.40935 42.82656 12438 ft 326 kts 242°
2026-04-24 08:11 11.39819 42.80634 13088 ft 329 kts 242°
2026-04-24 08:11 11.38691 42.78594 13724 ft 332 kts 242°
2026-04-24 08:11 11.37550 42.76533 14347 ft 335 kts 242°
2026-04-24 08:11 11.36403 42.74454 14958 ft 338 kts 242°
2026-04-24 08:12 11.35244 42.72355 15555 ft 341 kts 242°
2026-04-24 08:12 11.34076 42.70242 16140 ft 344 kts 242°
2026-04-24 08:12 11.32897 42.68110 16712 ft 347 kts 242°
2026-04-24 08:12 11.31704 42.65955 17273 ft 350 kts 242°
2026-04-24 08:13 11.30501 42.63784 17822 ft 353 kts 242°
2026-04-24 08:13 11.29289 42.61596 18358 ft 356 kts 242°
2026-04-24 08:13 11.28069 42.59395 18883 ft 359 kts 242°
2026-04-24 08:13 11.26838 42.57175 19399 ft 362 kts 242°
2026-04-24 08:14 11.25594 42.54933 19904 ft 364 kts 242°
2026-04-24 08:14 11.24344 42.52679 20393 ft 367 kts 242°
2026-04-24 08:14 11.23080 42.50402 20872 ft 370 kts 242°
2026-04-24 08:14 11.21809 42.48112 21337 ft 373 kts 242°
2026-04-24 08:15 11.20528 42.45805 21795 ft 376 kts 242°
2026-04-24 08:15 11.19240 42.43481 22240 ft 378 kts 242°
2026-04-24 08:15 11.17941 42.41138 22675 ft 381 kts 242°
2026-04-24 08:15 11.16630 42.38778 23097 ft 384 kts 242°
2026-04-24 08:16 11.15311 42.36403 23514 ft 386 kts 242°
2026-04-24 08:16 11.14001 42.34047 23914 ft 389 kts 242°
2026-04-24 08:16 11.12663 42.31642 24307 ft 391 kts 242°
2026-04-24 08:16 11.11317 42.29224 24692 ft 394 kts 242°
2026-04-24 08:17 11.09964 42.26794 25065 ft 396 kts 242°
2026-04-24 08:17 11.08600 42.24344 25433 ft 399 kts 242°
2026-04-24 08:17 11.07227 42.21879 25790 ft 401 kts 242°
2026-04-24 08:17 11.05849 42.19405 26137 ft 403 kts 242°
2026-04-24 08:18 11.04462 42.16916 26478 ft 406 kts 242°
2026-04-24 08:18 11.03035 42.14432 26809 ft 408 kts 240°
2026-04-24 08:18 11.01502 42.11982 27128 ft 411 kts 238°
2026-04-24 08:18 10.99931 42.09553 27494 ft 411 kts 238°
2026-04-24 08:19 10.98359 42.07122 27923 ft 410 kts 238°
2026-04-24 08:19 10.96796 42.04700 28335 ft 409 kts 238°
2026-04-24 08:19 10.95238 42.02280 28737 ft 409 kts 238°
2026-04-24 08:19 10.93682 41.99859 29131 ft 408 kts 238°
2026-04-24 08:20 10.92132 41.97444 29518 ft 407 kts 238°
2026-04-24 08:20 10.90585 41.95031 29895 ft 406 kts 239°
2026-04-24 08:20 10.89045 41.92628 30262 ft 406 kts 239°
2026-04-24 08:20 10.87505 41.90224 30622 ft 405 kts 239°
2026-04-24 08:21 10.85968 41.87823 30972 ft 404 kts 239°
2026-04-24 08:21 10.84438 41.85429 31318 ft 404 kts 239°
2026-04-24 08:21 10.82909 41.83033 31656 ft 403 kts 239°
2026-04-24 08:21 10.81387 41.80649 31964 ft 403 kts 239°
2026-04-24 08:22 10.79850 41.78244 31984 ft 406 kts 239°
2026-04-24 08:22 10.76777 41.73434 31994 ft 404 kts 239°
2026-04-24 08:23 10.73730 41.68667 31997 ft 401 kts 239°
2026-04-24 08:23 10.70687 41.63909 31997 ft 401 kts 239°
2026-04-24 08:24 10.67645 41.59156 31997 ft 401 kts 239°
2026-04-24 08:24 10.64599 41.54398 31997 ft 401 kts 239°
2026-04-24 08:25 10.61553 41.49641 31997 ft 401 kts 239°
2026-04-24 08:25 10.58507 41.44889 31997 ft 401 kts 239°
2026-04-24 08:26 10.57657 41.43562 31997 ft 401 kts 239°
2026-04-24 08:26 10.54612 41.38812 31997 ft 401 kts 239°
2026-04-24 08:27 10.51544 41.34029 31997 ft 401 kts 239°
2026-04-24 08:27 10.48521 41.29318 31997 ft 401 kts 239°
2026-04-24 08:28 10.45474 41.24571 31997 ft 401 kts 239°
2026-04-24 08:28 10.42428 41.19829 31997 ft 401 kts 239°
2026-04-24 08:29 10.39380 41.15084 31997 ft 401 kts 239°
2026-04-24 08:29 10.36331 41.10341 31997 ft 401 kts 239°
2026-04-24 08:30 10.33284 41.05601 31997 ft 401 kts 239°
2026-04-24 08:30 10.30239 41.00868 31997 ft 401 kts 239°
2026-04-24 08:31 10.27189 40.96129 31997 ft 401 kts 238°
2026-04-24 08:31 10.24139 40.91392 31997 ft 401 kts 238°
2026-04-24 08:32 10.21091 40.86660 31997 ft 401 kts 238°
2026-04-24 08:32 10.18043 40.81928 31997 ft 400 kts 238°
2026-04-24 08:33 10.14992 40.77197 31997 ft 400 kts 238°
2026-04-24 08:33 10.11944 40.72469 31997 ft 400 kts 238°
2026-04-24 08:34 10.08893 40.67739 31997 ft 400 kts 238°
2026-04-24 08:34 10.05841 40.63011 31997 ft 400 kts 238°
2026-04-24 08:35 10.02792 40.58289 31997 ft 400 kts 238°
2026-04-24 08:35 9.99742 40.53567 31997 ft 400 kts 238°
2026-04-24 08:36 9.96730 40.48906 31989 ft 384 kts 238°
2026-04-24 08:36 9.95294 40.46683 31984 ft 370 kts 239°
2026-04-24 08:36 9.93925 40.44566 31979 ft 358 kts 239°
2026-04-24 08:37 9.91228 40.40394 31818 ft 347 kts 239°
2026-04-24 08:37 9.89937 40.38398 31637 ft 340 kts 239°
2026-04-24 08:37 9.88646 40.36403 31425 ft 335 kts 239°
2026-04-24 08:37 9.87367 40.34427 31136 ft 334 kts 239°
2026-04-24 08:38 9.86097 40.32464 30850 ft 332 kts 239°
2026-04-24 08:38 9.84819 40.30489 30561 ft 329 kts 239°
2026-04-24 08:38 9.83583 40.28580 30284 ft 327 kts 239°
2026-04-24 08:38 9.82337 40.26655 30005 ft 325 kts 239°
2026-04-24 08:39 9.81086 40.24722 29728 ft 323 kts 239°
2026-04-24 08:39 9.79873 40.22850 29455 ft 320 kts 239°
2026-04-24 08:39 9.78658 40.20975 29168 ft 318 kts 239°
2026-04-24 08:39 9.77445 40.19102 28881 ft 316 kts 239°
2026-04-24 08:40 9.76243 40.17247 28596 ft 313 kts 239°
2026-04-24 08:40 9.75054 40.15412 28314 ft 311 kts 239°
2026-04-24 08:40 9.73868 40.13582 28032 ft 309 kts 239°
2026-04-24 08:40 9.72678 40.11746 27752 ft 315 kts 239°
2026-04-24 08:41 9.71458 40.09864 27463 ft 322 kts 239°
2026-04-24 08:41 9.70219 40.07954 27166 ft 327 kts 239°
2026-04-24 08:41 9.68973 40.06032 26865 ft 325 kts 239°
2026-04-24 08:41 9.67734 40.04122 26567 ft 324 kts 239°
2026-04-24 08:42 9.66501 40.02222 26271 ft 321 kts 239°
2026-04-24 08:42 9.65277 40.00335 25977 ft 319 kts 239°
2026-04-24 08:42 9.64473 39.99095 25783 ft 318 kts 239°
2026-04-24 08:42 9.63264 39.97233 25493 ft 315 kts 239°
2026-04-24 08:43 9.62063 39.95378 25204 ft 313 kts 239°
2026-04-24 08:43 9.60873 39.93542 24917 ft 311 kts 239°
2026-04-24 08:43 9.59689 39.91717 24633 ft 309 kts 239°
2026-04-24 08:43 9.58514 39.89906 24351 ft 307 kts 239°
2026-04-24 08:44 9.57347 39.88109 24071 ft 304 kts 239°
2026-04-24 08:44 9.56187 39.86323 23793 ft 302 kts 239°
2026-04-24 08:44 9.55035 39.84551 23517 ft 300 kts 239°
2026-04-24 08:44 9.53892 39.82792 23244 ft 298 kts 239°
2026-04-24 08:45 9.52758 39.81048 22973 ft 296 kts 239°
2026-04-24 08:45 9.51628 39.79310 22703 ft 294 kts 239°
2026-04-24 08:45 9.50508 39.77588 22436 ft 292 kts 239°
2026-04-24 08:45 9.49397 39.75880 22170 ft 290 kts 239°
2026-04-24 08:46 9.48292 39.74181 21906 ft 288 kts 239°
2026-04-24 08:46 9.47193 39.72493 21644 ft 286 kts 239°
2026-04-24 08:46 9.46104 39.70819 21383 ft 284 kts 239°
2026-04-24 08:46 9.45022 39.69155 21125 ft 282 kts 239°
2026-04-24 08:47 9.43932 39.67515 20870 ft 280 kts 238°
2026-04-24 08:47 9.42851 39.65890 20616 ft 278 kts 238°
2026-04-24 08:47 9.41773 39.64272 20364 ft 276 kts 239°
2026-04-24 08:47 9.40704 39.62666 20114 ft 274 kts 239°
2026-04-24 08:48 9.39643 39.61073 19865 ft 272 kts 239°
2026-04-24 08:48 9.38588 39.59489 19619 ft 270 kts 239°
2026-04-24 08:48 9.37544 39.57920 19374 ft 268 kts 239°
2026-04-24 08:48 9.36505 39.56360 19131 ft 266 kts 239°
2026-04-24 08:49 9.35488 39.54833 18894 ft 264 kts 239°
2026-04-24 08:49 9.34455 39.53280 18656 ft 269 kts 239°
2026-04-24 08:49 9.33401 39.51692 18411 ft 275 kts 239°
2026-04-24 08:49 9.32322 39.50069 18156 ft 280 kts 238°
2026-04-24 08:50 9.31231 39.48427 17898 ft 281 kts 238°
2026-04-24 08:50 9.30141 39.46789 17641 ft 281 kts 238°
2026-04-24 08:50 9.29052 39.45154 17386 ft 279 kts 238°
2026-04-24 08:50 9.27972 39.43532 17133 ft 277 kts 238°
2026-04-24 08:51 9.26900 39.41923 16883 ft 275 kts 238°
2026-04-24 08:51 9.25839 39.40330 16636 ft 273 kts 238°
2026-04-24 08:51 9.24780 39.38741 16389 ft 271 kts 238°
2026-04-24 08:51 9.23734 39.37174 16161 ft 268 kts 238°
2026-04-24 08:52 9.22694 39.35613 15921 ft 266 kts 238°
2026-04-24 08:52 9.21662 39.34065 15680 ft 264 kts 238°
2026-04-24 08:52 9.20636 39.32527 15442 ft 262 kts 238°
2026-04-24 08:52 9.19618 39.31000 15205 ft 261 kts 238°
2026-04-24 08:53 9.18608 39.29487 14967 ft 259 kts 238°
2026-04-24 08:53 9.17602 39.27980 14727 ft 257 kts 238°
2026-04-24 08:53 9.16607 39.26485 14485 ft 256 kts 239°
2026-04-24 08:53 9.15637 39.24970 14242 ft 258 kts 240°
2026-04-24 08:54 9.14676 39.23428 13992 ft 260 kts 240°
2026-04-24 08:54 9.13710 39.21877 13739 ft 262 kts 240°
2026-04-24 08:54 9.12733 39.20310 13483 ft 265 kts 240°
2026-04-24 08:54 9.11750 39.18734 13297 ft 262 kts 240°
2026-04-24 08:55 9.10785 39.17188 13144 ft 257 kts 240°
2026-04-24 08:55 9.09840 39.15675 13000 ft 251 kts 240°
2026-04-24 08:55 9.08924 39.14209 12882 ft 243 kts 240°
2026-04-24 08:55 9.08031 39.12780 12736 ft 237 kts 240°
2026-04-24 08:56 9.07167 39.11397 12602 ft 229 kts 240°
2026-04-24 08:56 9.06471 39.09992 12419 ft 220 kts 251°
2026-04-24 08:56 9.06007 39.08542 12214 ft 213 kts 255°
2026-04-24 08:56 9.05603 39.07122 12014 ft 206 kts 255°
2026-04-24 08:57 9.05211 39.05755 11809 ft 199 kts 255°
2026-04-24 08:57 9.04831 39.04438 11610 ft 191 kts 255°
2026-04-24 08:57 9.04464 39.03173 11419 ft 184 kts 255°
2026-04-24 08:57 9.04109 39.01950 11250 ft 178 kts 255°
2026-04-24 08:58 9.03772 39.00790 11173 ft 172 kts 255°
2026-04-24 08:58 9.03434 38.99628 10971 ft 168 kts 255°
2026-04-24 08:58 9.03108 38.98509 10744 ft 164 kts 254°
2026-04-24 08:58 9.02787 38.97407 10527 ft 163 kts 253°
2026-04-24 08:59 9.02466 38.96304 10312 ft 164 kts 252°
2026-04-24 08:59 9.02142 38.95193 10030 ft 172 kts 254°
2026-04-24 08:59 9.01794 38.93999 9895 ft 178 kts 254°
2026-04-24 08:59 9.01440 38.92783 9660 ft 183 kts 253°
2026-04-24 09:00 9.01088 38.91573 9388 ft 179 kts 253°
2026-04-24 09:00 9.00738 38.90371 9138 ft 172 kts 253°
2026-04-24 09:00 9.00408 38.89240 8912 ft 168 kts 253°
2026-04-24 09:00 9.00081 38.88119 8697 ft 165 kts 253°
2026-04-24 09:01 8.99757 38.87005 8481 ft 165 kts 253°
2026-04-24 09:01 8.99433 38.85894 8264 ft 164 kts 253°
2026-04-24 09:01 8.99110 38.84786 8047 ft 164 kts 253°
2026-04-24 09:01 8.98788 38.83681 7829 ft 163 kts 253°
2026-04-24 09:02 8.98467 38.82579 7613 ft 163 kts 253°
2026-04-24 09:02 8.98148 38.81484 7398 ft 162 kts 253°
2026-04-24 09:02 8.97837 38.80417 7327 ft 145 kts 253°
2026-04-24 09:02 8.97618 38.79657 7327 ft 81 kts 254°
2026-04-24 09:03 8.97509 38.79259 7327 ft 49 kts 255°
2026-04-24 09:03 8.97426 38.78988 7327 ft 23 kts 253°
2026-04-24 09:03 8.97386 38.78859 7327 ft 16 kts 271°
2026-04-24 09:03 8.97405 38.78777 7327 ft 9 kts 290°
2026-04-24 09:04 8.97417 38.78742 7327 ft 3 kts 290°
2026-04-24 09:04 8.97427 38.78715 7327 ft 6 kts 290°
2026-04-24 09:04 8.97452 38.78665 7327 ft 9 kts 317°
2026-04-24 09:04 8.97514 38.78671 7327 ft 11 kts 52°
2026-04-24 09:05 8.97545 38.78744 7327 ft 12 kts 74°
2026-04-24 09:05 8.97600 38.78776 7327 ft 9 kts 348°
2026-04-24 09:05 8.97656 38.78760 7327 ft 7 kts 343°
2026-04-24 09:05 8.97698 38.78748 7327 ft 5 kts 343°
2026-04-24 09:06 8.97729 38.78739 7327 ft 4 kts 343°
2026-04-24 09:06 8.97748 38.78733 7327 ft 2 kts 343°
2026-04-24 09:06 8.97757 38.78730 7327 ft 1 kts 343°
2026-04-24 09:06 8.97768 38.78727 7327 ft 2 kts 343°
2026-04-24 09:07 8.97791 38.78720 7327 ft 5 kts 344°
2026-04-24 09:07 8.97833 38.78714 7327 ft 7 kts 12°
2026-04-24 09:07 8.97880 38.78812 7327 ft 9 kts 73°
2026-04-24 09:08 8.97899 38.78878 7327 ft 10 kts 75°
2026-04-24 09:08 8.97919 38.78948 7327 ft 10 kts 74°
2026-04-24 09:08 8.97938 38.79016 7327 ft 10 kts 74°
2026-04-24 09:08 8.97957 38.79081 7327 ft 10 kts 74°
2026-04-24 09:09 8.97974 38.79144 7327 ft 9 kts 74°
2026-04-24 09:09 8.97992 38.79206 7327 ft 9 kts 74°
2026-04-24 09:09 8.98010 38.79266 7327 ft 9 kts 74°
2026-04-24 09:09 8.98042 38.79296 7327 ft 5 kts 352°
2026-04-24 09:10 8.98058 38.79292 7327 ft 0 kts 345°
2026-04-24 09:10 8.98069 38.79289 7327 ft 0 kts 342°
2026-04-24 09:14 9.01970 38.74398 9380 ft 1 kts 342°
2026-04-24 09:14 11.54714 43.17335 57 ft 0 kts 271°